User: anonymous
Location: Unspecified
(0.0000°N, 0.0000°E)
Time: 19:12:41
(UTC+02:00)
Language:

Meteor 1-10 Rocket - Orbit

View from above orbital plane
View from above orbital plane
View from above satellite
View from above satellite

Ground track
Ground track

The orbit data is extracted from the following two-line orbital elements,

1 05732U 71120B   14206.12564824 -.00000041  00000-0 -32620-4 0  3261
2 05732 081.2498 065.1358 0052711 136.8738 016.8564 14.05825945190262
Epoch (UTC): 25 July 2014 03:00:56
Eccentricity: 0.0052711
inclination: 81.2498°
perigee height: 835 km
apogee height: 912 km
right ascension of ascending node: 65.1358°
argument of perigee: 136.8738°
revolutions per day: 14.05825945
mean anomaly at epoch: 16.8564°
orbit number at epoch: 19026

The dashed part of the orbit path shows where the satellite is in the earth's shadow,  

DLR